Flugplatz Herrenteich

Für EDEH sind keine METAR/TAF Berichte vorhanden.
Es werden die Flugwettermeldungen vom Flugplatz Mannheim-City in 14 km Entfernung angezeigt.

Bericht für EDFM

vom 01.12. um 08:20 UTC

Wind 11 kt aus 190°

Sichtweite 10 km oder mehr

schwacher Regen

aufgelockert bewölkt in 800 ft

bedeckt in 2500 ft

Temperatur 6.0°C

Taupunkt 5.0°C

Luftfeuchtigkeit 93%

Luftdruck 1002 hPa

EDFM 010820Z 19011KT 160V220 9999 -RA SCT008 OVC025 06/05 Q1002

Prognose für EDFM

vom 01.12. um 08:00 UTC

Zwischen 09:00 UTC und 18:00 UTC

Wind 15 kt aus 200° in Böen 25 kt

Sichtweite 10 km oder mehr

aufgebrochene Bewölkung in 3000 ft


Zwischen 09:00 UTC und 15:00 UTC zeitweise

Wind 20 kt aus 210° in Böen 35 kt

TAF EDFM 010800Z 0109/0118 20015G25KT 9999 BKN030 TEMPO 0109/0115 21020G35KT
Impressum